[[{"header":{"parameterUnit":"m.s-1","parameterCategory":2,"la1":30.2991,"la2":30.254,"lo1":-89.0895,"lo2":-89.0444,"dy":0.0017,"dx":0.0017,"nx":28,"ny":28,"refTime":"2023-05-26T21:00:00:Z","depth":"0","parameterNumber":2,"parameterNumberName":"U-component_of_CURRENTS"},"data":[0,0,0,0,0,0,0,0,0,0,0,0,0,0,0,0,0,0,0,0,0,0,0,0,0,0,0,0,0,0,0,0,0,0,0,0,0,0,0,0,0,0,0,0,0,0,0,0,0,0,0,0,0,0,0,0,0,0,-0.256,-0.256,0,-0.2569,-0.2568,-0.2568,-0.2537,-0.2537,-0.2536,-0.2536,-0.2461,-0.246,-0.2458,0,0,0,0,0,0,0,0,0,0,0,0,0,-0.2415,-0.2418,-0.256,-0.256,-0.2561,-0.2569,-0.2568,-0.2568,-0.2537,-0.2537,-0.2536,-0.2536,-0.2462,-0.246,-0.2458,0,0,0,0,0,0,0,0,0,0,0,0,0,-0.2452,-0.2419,-0.256,-0.255,-0.255,-0.2569,-0.2568,-0.2568,-0.2537,-0.2537,-0.2536,-0.2535,-0.2463,-0.246,-0.2458,-0.2457,0,0,-0.2451,-0.245,0,0,0,0,0,0,0,0,-0.245,-0.2456,-0.2551,-0.2551,-0.2551,-0.2556,-0.249,-0.2528,-0.2538,-0.2537,-0.2536,-0.2535,-0.2489,-0.2485,-0.2481,-0.2453,-0.245,-0.2451,-0.2449,-0.2448,-0.2447,0,0,0,0,0,0,0,-0.2447,-0.2455,-0.2558,-0.2552,-0.2552,-0.2512,-0.2516,-0.2497,-0.2511,-0.2537,-0.2536,-0.2545,-0.2488,-0.2484,-0.2479,-0.2449,-0.2451,-0.2449,-0.2447,-0.2446,-0.2331,-0.233,0,0,0,0,0,0,-0.2464,-0.2454,-0.2558,-0.2559,-0.2503,-0.2516,-0.2521,-0.2551,-0.2513,-0.2509,-0.2546,-0.2544,-0.2488,-0.2482,-0.2477,-0.243,-0.2448,-0.2446,-0.2445,-0.2333,-0.2331,-0.2329,0,0,0,0,0,0,-0.2461,-0.2474,-0.2557,-0.2509,-0.2517,-0.252,-0.2553,-0.2551,-0.2553,-0.2522,-0.2515,-0.2551,-0.2487,-0.248,-0.2458,-0.2428,-0.2445,-0.2443,-0.2335,-0.2332,-0.233,-0.2363,0,0,0,0,0,0,-0.2457,-0.2473,-0.2495,-0.2511,-0.2521,-0.2583,-0.2554,-0.2552,-0.2562,-0.256,-0.2524,-0.2516,-0.2486,-0.2461,-0.2455,-0.2425,-0.2441,-0.2337,-0.2334,-0.2331,-0.2364,-0.2362,-0.2361,0,0,0,0,0,-0.2452,-0.2496,-0.2497,-0.2509,-0.2554,-0.2585,-0.2586,-0.258,-0.2563,-0.2575,-0.2539,-0.2517,-0.2436,-0.246,-0.2453,-0.2421,-0.2339,-0.2335,-0.2331,-0.2365,-0.2363,-0.2361,0,0,0,0,0,0,-0.2446,-0.2498,-0.2499,-0.2557,-0.2573,-0.2582,-0.2601,-0.2588,-0.2571,-0.2568,-0.252,-0.251,-0.2474,-0.2444,-0.2471,-0.2373,-0.2374,-0.2369,-0.2402,-0.2399,-0.2397,-0.2386,-0.2439,0,0,0,0,0,-0.2457,-0.2503,-0.2534,-0.2577,-0.2595,-0.2596,-0.2605,-0.2605,-0.2596,-0.2589,-0.2557,-0.2507,-0.2452,-0.2428,-0.2392,-0.2356,-0.2342,-0.2319,-0.2318,-0.2317,-0.2299,-0.2282,-0.2279,-0.2317,-0.2317,-0.2317,0,0,-0.2462,-0.2501,-0.2523,-0.2578,-0.2593,-0.2601,-0.26,-0.2633,-0.2602,-0.2583,-0.254,-0.2517,-0.2444,-0.2396,-0.2374,-0.2369,-0.2298,-0.2312,-0.2312,-0.2294,-0.2278,-0.2275,-0.2272,-0.2315,-0.2315,-0.2316,0,0,-0.2499,-0.2539,-0.2585,-0.26,-0.264,-0.2628,-0.264,-0.2654,-0.2628,-0.2604,-0.2556,-0.252,-0.2458,-0.2392,-0.2346,-0.2311,-0.2299,-0.2291,-0.2266,-0.2252,-0.2249,-0.2247,-0.2237,-0.2233,-0.228,-0.228,-0.228,0,-0.2494,-0.2548,-0.2597,-0.2634,-0.2615,-0.2637,-0.263,-0.262,-0.2611,-0.2573,-0.2594,-0.2482,-0.2443,-0.2336,-0.2315,-0.2306,-0.2305,-0.2289,-0.2253,-0.225,-0.2247,-0.2237,-0.2233,-0.2281,-0.2281,-0.2281,-0.2281,0,-0.2558,-0.2578,-0.2608,-0.2636,-0.2631,-0.2641,-0.2623,-0.2609,-0.2581,-0.2557,-0.249,-0.2458,-0.2381,-0.2359,-0.2323,-0.2254,-0.2264,-0.2269,-0.2271,-0.2246,-0.2236,-0.2231,-0.2283,-0.2283,-0.2282,-0.2282,0,0,-0.2572,-0.2631,-0.2632,-0.2599,-0.2616,-0.26,-0.2563,-0.2506,-0.2466,-0.2466,-0.2402,-0.2321,-0.2332,-0.2278,-0.2245,-0.2225,-0.2211,-0.2236,-0.2235,-0.2246,-0.2189,-0.2142,-0.2133,-0.2227,-0.2226,-0.2225,-0.2197,0,-0.2576,-0.2591,-0.2624,-0.2572,-0.2544,-0.253,-0.2481,-0.2439,-0.2414,-0.2379,-0.2339,-0.2292,-0.2289,-0.2268,-0.2247,-0.2223,-0.2196,-0.2218,-0.2191,-0.219,-0.2169,-0.2124,-0.2039,-0.2002,-0.2192,-0.2191,-0.2191,0,-0.2606,-0.2586,-0.2545,-0.2472,-0.2464,-0.2434,-0.2326,-0.2299,-0.2269,-0.2264,-0.2241,-0.2247,-0.2192,-0.2221,-0.2171,-0.2194,-0.2178,-0.2174,-0.2174,-0.2108,-0.2132,-0.2051,-0.1986,-0.1969,-0.2183,-0.2184,-0.2184,0,-0.2519,-0.2512,-0.2444,-0.2428,-0.2382,-0.2327,-0.2284,-0.2248,-0.2218,-0.2199,-0.2212,-0.2176,-0.2169,-0.2154,-0.2151,-0.2163,-0.2128,-0.2144,-0.208,-0.2078,-0.1983,-0.1974,-0.1908,-0.2097,-0.2097,-0.2097,-0.2097,0,-0.2464,-0.2411,-0.2396,-0.2348,-0.2237,-0.2244,-0.2158,-0.213,-0.214,-0.2114,-0.215,-0.2142,-0.2158,-0.2154,-0.2144,-0.2096,-0.2118,-0.2054,-0.2056,-0.1992,-0.1983,-0.1946,-0.1971,-0.2096,-0.2096,-0.2096,-0.2097,0,-0.2361,-0.2381,-0.2283,-0.2215,-0.2196,-0.21,-0.2071,-0.2042,-0.2073,-0.2053,-0.2054,-0.2109,-0.2102,-0.2118,-0.2098,-0.2076,-0.2003,-0.2016,-0.1942,-0.1933,-0.1844,-0.1874,-0.1798,-0.1745,-0.1929,-0.1927,-0.1926,0,-0.2303,-0.2252,-0.2161,-0.2103,-0.2064,-0.1976,-0.1945,-0.197,-0.1965,-0.2021,-0.2008,-0.2037,-0.2026,-0.2006,-0.1972,-0.1933,-0.1936,-0.1831,-0.1814,-0.1801,-0.1837,-0.1861,-0.1824,-0.1713,-0.171,-0.1707,-0.1705,0,-0.2123,-0.211,-0.2014,-0.1929,-0.1867,-0.1816,-0.1779,-0.1782,-0.184,-0.1862,-0.1886,-0.1898,-0.1903,-0.1842,-0.1817,-0.1779,-0.1781,-0.1778,-0.1775,-0.1654,-0.1663,-0.1626,-0.1788,-0.1684,-0.1686,-0.1688,-0.1689,-0.169,-0.196,-0.1858,-0.1777,-0.1688,-0.1657,-0.1638,-0.1573,-0.1613,-0.161,-0.1638,-0.1722,-0.1731,-0.1739,-0.1691,-0.165,-0.1561,-0.1618,-0.1517,-0.1556,-0.1582,-0.1516,-0.1629,-0.1522,-0.1523,-0.1524,-0.1525,-0.1526,0,-0.1696,-0.1635,-0.1554,-0.1451,-0.1412,-0.1458,-0.1452,-0.1418,-0.1397,-0.1481,-0.1496,-0.1548,-0.149,-0.15,-0.1439,-0.1372,-0.1335,-0.1342,-0.1355,-0.1326,-0.1421,-0.1394,-0.1239,-0.1239,-0.1239,-0.1239,-0.1239,-0.1239,-0.1537,-0.1376,-0.1366,-0.1229,-0.1212,-0.1132,-0.1118,-0.1117,-0.1152,-0.1186,-0.1256,-0.1351,-0.1399,-0.1484,-0.1378,-0.1297,-0.1268,-0.1226,-0.1254,-0.1333,-0.1353,-0.1372,-0.135,-0.1188,-0.1188,-0.1094,-0.1093,-0.1093]},{"header":{"parameterUnit":"m.s-1","parameterCategory":2,"la1":30.2991,"la2":30.254,"lo1":-89.0895,"lo2":-89.0444,"dy":0.0017,"dx":0.0017,"nx":28,"ny":28,"refTime":"2023-05-26T21:00:00:Z","depth":"0","parameterNumber":3,"parameterNumberName":"V-component_of_CURRENTS"},"data":[0,0,0,0,0,0,0,0,0,0,0,0,0,0,0,0,0,0,0,0,0,0,0,0,0,0,0,0,0,0,0,0,0,0,0,0,0,0,0,0,0,0,0,0,0,0,0,0,0,0,0,0,0,0,0,0,0,0,-0.0776,-0.0774,0,-0.0584,-0.0582,-0.058,-0.0462,-0.0462,-0.0461,-0.0461,-0.0259,-0.0255,-0.025,0,0,0,0,0,0,0,0,0,0,0,0,0,-0.0949,-0.0947,-0.0777,-0.0774,-0.0772,-0.0585,-0.0582,-0.0579,-0.0462,-0.0462,-0.0461,-0.0461,-0.0261,-0.0255,-0.0249,0,0,0,0,0,0,0,0,0,0,0,0,0,-0.0827,-0.0946,-0.0777,-0.0692,-0.0682,-0.0585,-0.0582,-0.0578,-0.0463,-0.0462,-0.0461,-0.046,-0.0263,-0.0256,-0.0249,-0.0218,0,0,-0.0226,-0.0223,0,0,0,0,0,0,0,0,-0.0834,-0.082,-0.0707,-0.0698,-0.0687,-0.0547,-0.0569,-0.0458,-0.0463,-0.0545,-0.0461,-0.046,-0.0356,-0.0341,-0.0305,-0.0209,-0.02,-0.0225,-0.0221,-0.0218,-0.0216,0,0,0,0,0,0,0,-0.0843,-0.0827,-0.0699,-0.0704,-0.0692,-0.0631,-0.0614,-0.0547,-0.0456,-0.0538,-0.0529,-0.051,-0.035,-0.0313,-0.03,-0.0197,-0.0226,-0.0219,-0.0215,-0.0212,-0.0017,-0.0016,0,0,0,0,0,0,-0.0874,-0.0836,-0.0705,-0.0694,-0.0761,-0.063,-0.061,-0.0592,-0.0457,-0.0436,-0.051,-0.0505,-0.0325,-0.0308,-0.0292,-0.0209,-0.0218,-0.0211,-0.0207,-0.0018,-0.0017,-0.0016,0,0,0,0,0,0,-0.0878,-0.0864,-0.0713,-0.0761,-0.0738,-0.0628,-0.0609,-0.0589,-0.0551,-0.0436,-0.0415,-0.0494,-0.0324,-0.0302,-0.0236,-0.0202,-0.0208,-0.0201,-0.0019,-0.0018,-0.0017,-0.0068,0,0,0,0,0,0,-0.0884,-0.0867,-0.0875,-0.0764,-0.0736,-0.0662,-0.0609,-0.0586,-0.0541,-0.0532,-0.0415,-0.0395,-0.0322,-0.0248,-0.0229,-0.0192,-0.0195,-0.002,-0.0018,-0.0017,-0.0067,-0.0068,-0.007,0,0,0,0,0,-0.0891,-0.0907,-0.0877,-0.0862,-0.0748,-0.0663,-0.0643,-0.0561,-0.0541,-0.0526,-0.0451,-0.0399,-0.0224,-0.0242,-0.022,-0.018,-0.002,-0.0019,-0.0017,-0.0066,-0.0068,-0.007,0,0,0,0,0,0,-0.1002,-0.0893,-0.0858,-0.0845,-0.0764,-0.0643,-0.0629,-0.0574,-0.0502,-0.0499,-0.0397,-0.0372,-0.0295,-0.0242,-0.0263,-0.012,-0.011,-0.0104,-0.0155,-0.0156,-0.0157,-0.0165,-0.0189,0,0,0,0,0,-0.1029,-0.1007,-0.0893,-0.0888,-0.085,-0.0744,-0.0705,-0.0644,-0.0562,-0.0529,-0.0444,-0.0356,-0.027,-0.0222,-0.0144,-0.0076,-0.0049,-0.0034,-0.0035,-0.0037,-0.0028,0.0009,0.0011,-0.0011,-0.0011,-0.0011,0,0,-0.1079,-0.1014,-0.1006,-0.0909,-0.0843,-0.0767,-0.0719,-0.0663,-0.0593,-0.052,-0.0426,-0.0364,-0.0257,-0.017,-0.013,-0.0121,-0.0017,-0.0034,-0.0037,-0.0027,0.0011,0.0013,0.0015,-0.0009,-0.001,-0.001,0,0,-0.1133,-0.11,-0.1077,-0.1003,-0.09,-0.0817,-0.0806,-0.0684,-0.0628,-0.0539,-0.0463,-0.0394,-0.0261,-0.0173,-0.0111,-0.0079,-0.0032,-0.005,-0.0051,-0.0016,-0.0014,-0.0012,0.0014,0.0018,-0.0043,-0.0044,-0.0044,0,-0.1195,-0.1126,-0.1064,-0.1001,-0.0927,-0.084,-0.0768,-0.0701,-0.0574,-0.0527,-0.0518,-0.0331,-0.0253,-0.0131,-0.011,-0.0079,-0.0062,-0.0055,-0.002,-0.0017,-0.0015,0.0012,0.0018,-0.0046,-0.0045,-0.0045,-0.0045,0,-0.1193,-0.1132,-0.1116,-0.0989,-0.0919,-0.0851,-0.073,-0.0675,-0.0606,-0.0526,-0.0422,-0.033,-0.0219,-0.0179,-0.0125,-0.0049,-0.0046,-0.0036,-0.0023,-0.0016,0.0012,0.0019,-0.0049,-0.0048,-0.0048,-0.0047,0,0,-0.131,-0.1141,-0.1127,-0.104,-0.0891,-0.0821,-0.0734,-0.0603,-0.0554,-0.0459,-0.0385,-0.0244,-0.0224,-0.0154,-0.0091,-0.0051,-0.0018,-0.0037,-0.0034,-0.0025,0.0048,0.0092,0.0103,-0.0013,-0.0012,-0.0011,0.0054,0,-0.1302,-0.1165,-0.1087,-0.0952,-0.0851,-0.0752,-0.0676,-0.0571,-0.0493,-0.042,-0.0333,-0.025,-0.0203,-0.0168,-0.0118,-0.0042,-0.0001,-0.0037,0.0052,0.0055,0.0082,0.0113,0.0144,0.0209,0.0061,0.0062,0.0063,0,-0.1293,-0.1179,-0.1039,-0.0871,-0.0829,-0.0759,-0.0614,-0.054,-0.0444,-0.0402,-0.0328,-0.0273,-0.0176,-0.0167,-0.0036,-0.0068,-0.0009,0.0038,0.0041,0.0109,0.0113,0.0183,0.0227,0.0358,0.0074,0.0073,0.0072,0,-0.1312,-0.1145,-0.1018,-0.0952,-0.0769,-0.0715,-0.0638,-0.0535,-0.0488,-0.0403,-0.0388,-0.0274,-0.0232,-0.0141,-0.0029,-0.004,0.0088,0.0084,0.0183,0.0185,0.0247,0.0253,0.0421,0.0168,0.0168,0.0168,0.0167,0,-0.1286,-0.1186,-0.1022,-0.0935,-0.0825,-0.072,-0.0644,-0.057,-0.0514,-0.0477,-0.0392,-0.0354,-0.0229,-0.0138,-0.004,0.0102,0.0085,0.0197,0.0215,0.023,0.0234,0.0379,0.0423,0.017,0.017,0.0169,0.0169,0,-0.129,-0.1192,-0.1028,-0.0849,-0.0815,-0.0732,-0.0651,-0.0623,-0.057,-0.0529,-0.0512,-0.0414,-0.0292,-0.0154,-0.0006,0.0087,0.0303,0.0269,0.0277,0.0296,0.0505,0.0543,0.0727,0.0809,0.0383,0.0384,0.0386,0,-0.127,-0.1173,-0.0973,-0.0919,-0.0835,-0.0742,-0.0715,-0.0649,-0.0635,-0.0561,-0.0553,-0.0435,-0.0339,-0.0097,0.0092,0.0285,0.0381,0.0421,0.0421,0.0544,0.0599,0.0625,0.0682,0.0474,0.0476,0.0478,0.0479,0,-0.1175,-0.1104,-0.0963,-0.0877,-0.0822,-0.0775,-0.073,-0.0734,-0.0684,-0.0659,-0.0598,-0.0516,-0.0272,-0.0032,0.0226,0.0341,0.0529,0.046,0.0592,0.0702,0.0738,0.0814,0.0393,0.0493,0.0492,0.0491,0.049,0.049,-0.1092,-0.1003,-0.0862,-0.0796,-0.0779,-0.0799,-0.0778,-0.0775,-0.0759,-0.0711,-0.0628,-0.0486,-0.0128,0.0245,0.0391,0.0703,0.0661,0.0788,0.0826,0.0843,0.0931,0.0544,0.0661,0.0661,0.066,0.066,0.066,0,-0.0939,-0.0876,-0.0811,-0.0739,-0.0773,-0.0773,-0.0787,-0.0789,-0.0785,-0.0719,-0.0634,-0.0254,0.0112,0.0448,0.0883,0.1058,0.1097,0.1139,0.1188,0.123,0.0899,0.0913,0.1085,0.1085,0.1085,0.1085,0.1085,0.1085,-0.0839,-0.0722,-0.0719,-0.0738,-0.0754,-0.0785,-0.08,-0.0807,-0.0764,-0.0623,-0.0437,-0.028,0.0215,0.0949,0.1363,0.1396,0.155,0.1531,0.1615,0.1386,0.1356,0.1327,0.1354,0.1616,0.1617,0.1942,0.1945,0.1947]}],[{"header":{"parameterUnit":"m.s-1","parameterCategory":2,"la1":30.2991,"la2":30.254,"lo1":-89.0895,"lo2":-89.0444,"dy":0.0017,"dx":0.0017,"nx":28,"ny":28,"refTime":"2023-05-26T21:00:00:Z","depth":"2","parameterNumber":2,"parameterNumberName":"U-component_of_CURRENTS"},"data":[0,0,0,0,0,0,0,0,0,0,0,0,0,0,0,0,0,0,0,0,0,0,0,0,0,0,0,0,0,0,0,0,0,0,0,0,0,0,0,0,0,0,0,0,0,0,0,0,0,0,0,0,0,0,0,0,0,0,-0.2282,-0.2281,0,-0.2249,-0.2249,-0.2249,-0.2314,-0.2316,-0.2317,-0.2319,-0.2209,-0.2205,-0.22,0,0,0,0,0,0,0,0,0,0,0,0,0,-0.2285,-0.2286,-0.2282,-0.2281,-0.228,-0.2249,-0.2249,-0.225,-0.2314,-0.2316,-0.2318,-0.2319,-0.221,-0.2205,-0.22,0,0,0,0,0,0,0,0,0,0,0,0,0,-0.2279,-0.2287,-0.2282,-0.2303,-0.2304,-0.2249,-0.2249,-0.225,-0.2314,-0.2316,-0.2318,-0.232,-0.2212,-0.2206,-0.2199,-0.2116,0,0,-0.218,-0.2177,0,0,0,0,0,0,0,0,-0.2279,-0.228,-0.2301,-0.2301,-0.2302,-0.2281,-0.221,-0.2199,-0.2313,-0.2318,-0.2319,-0.2321,-0.2219,-0.2212,-0.2213,-0.2111,-0.2106,-0.2179,-0.2175,-0.2172,-0.2171,0,0,0,0,0,0,0,-0.228,-0.228,-0.2276,-0.2299,-0.23,-0.2273,-0.2277,-0.2208,-0.2261,-0.2317,-0.232,-0.2304,-0.2221,-0.2219,-0.2211,-0.2105,-0.2179,-0.2174,-0.217,-0.2167,-0.201,-0.2009,0,0,0,0,0,0,-0.2273,-0.2282,-0.2277,-0.2275,-0.2287,-0.2272,-0.2276,-0.2292,-0.2264,-0.226,-0.2302,-0.2307,-0.2229,-0.2218,-0.2207,-0.2165,-0.2173,-0.2167,-0.2163,-0.201,-0.201,-0.2009,0,0,0,0,0,0,-0.2273,-0.2274,-0.2278,-0.2269,-0.2267,-0.227,-0.2287,-0.229,-0.2331,-0.2251,-0.2249,-0.2344,-0.2231,-0.2216,-0.2174,-0.2159,-0.2164,-0.2158,-0.201,-0.201,-0.2009,-0.2043,0,0,0,0,0,0,-0.2274,-0.2275,-0.2293,-0.227,-0.2267,-0.2283,-0.2284,-0.2287,-0.2311,-0.2319,-0.2284,-0.2274,-0.2231,-0.2184,-0.2168,-0.215,-0.2153,-0.2011,-0.201,-0.201,-0.2042,-0.2043,-0.2045,0,0,0,0,0,-0.2275,-0.2264,-0.2295,-0.2294,-0.229,-0.2284,-0.2283,-0.2293,-0.2311,-0.2338,-0.2304,-0.2278,-0.2169,-0.2178,-0.2159,-0.214,-0.2011,-0.201,-0.201,-0.2041,-0.2043,-0.2045,0,0,0,0,0,0,-0.2268,-0.2268,-0.2302,-0.2295,-0.2315,-0.2293,-0.2279,-0.2313,-0.231,-0.2309,-0.2265,-0.2251,-0.2211,-0.2171,-0.2183,-0.2095,-0.2088,-0.2083,-0.2118,-0.2119,-0.2121,-0.2119,-0.2147,0,0,0,0,0,-0.2277,-0.23,-0.2292,-0.2311,-0.229,-0.2303,-0.2302,-0.2328,-0.2309,-0.2316,-0.2289,-0.2242,-0.2183,-0.2154,-0.2104,-0.2044,-0.203,-0.2023,-0.2025,-0.2026,-0.2013,-0.2002,-0.2001,-0.2007,-0.2007,-0.2007,0,0,-0.2288,-0.229,-0.2308,-0.2316,-0.2307,-0.2287,-0.2311,-0.2315,-0.2319,-0.2292,-0.2276,-0.2247,-0.2173,-0.2117,-0.2094,-0.2085,-0.2018,-0.2025,-0.2027,-0.2012,-0.2001,-0.2,-0.2,-0.2006,-0.2006,-0.2006,0,0,-0.2275,-0.2307,-0.2292,-0.2303,-0.23,-0.23,-0.2314,-0.2311,-0.2323,-0.2308,-0.2283,-0.2256,-0.2176,-0.2125,-0.2081,-0.2056,-0.2033,-0.2044,-0.2033,-0.2024,-0.2024,-0.2023,-0.2013,-0.2011,-0.2036,-0.2036,-0.2036,0,-0.2287,-0.2279,-0.2293,-0.2267,-0.2262,-0.2307,-0.2282,-0.2289,-0.2298,-0.2284,-0.2309,-0.2215,-0.2171,-0.2083,-0.2078,-0.2057,-0.2052,-0.2035,-0.2027,-0.2026,-0.2025,-0.2014,-0.2012,-0.2037,-0.2037,-0.2037,-0.2037,0,-0.2257,-0.2251,-0.2229,-0.2228,-0.2229,-0.2229,-0.2221,-0.2238,-0.2259,-0.2266,-0.2229,-0.219,-0.2135,-0.2121,-0.2081,-0.2039,-0.204,-0.2041,-0.2027,-0.2026,-0.2015,-0.2012,-0.204,-0.2039,-0.2039,-0.2038,0,0,-0.2297,-0.222,-0.223,-0.2198,-0.2215,-0.2202,-0.219,-0.2176,-0.2169,-0.219,-0.217,-0.2098,-0.2114,-0.2067,-0.204,-0.2028,-0.2024,-0.203,-0.2029,-0.2026,-0.2006,-0.1954,-0.1946,-0.2032,-0.2032,-0.2031,-0.2005,0,-0.2279,-0.2197,-0.2193,-0.2154,-0.2087,-0.2125,-0.2111,-0.212,-0.2135,-0.2133,-0.211,-0.2082,-0.208,-0.2066,-0.2054,-0.2033,-0.2015,-0.203,-0.1999,-0.1998,-0.1958,-0.194,-0.1804,-0.1764,-0.2002,-0.2001,-0.2001,0,-0.2234,-0.2197,-0.2115,-0.2062,-0.2042,-0.2043,-0.2035,-0.2038,-0.2041,-0.2052,-0.2045,-0.2054,-0.202,-0.2041,-0.2006,-0.2021,-0.2006,-0.2001,-0.2,-0.1932,-0.194,-0.18,-0.1749,-0.1996,-0.1996,-0.1996,-0.1997,0,-0.2189,-0.2131,-0.2062,-0.2057,-0.2015,-0.1996,-0.1997,-0.2003,-0.2,-0.2006,-0.2023,-0.2005,-0.2004,-0.1993,-0.1991,-0.1999,-0.1974,-0.1983,-0.1917,-0.1914,-0.1778,-0.1763,-0.195,-0.195,-0.195,-0.195,-0.195,0,-0.2127,-0.2076,-0.203,-0.2,-0.1947,-0.1944,-0.1915,-0.1917,-0.1944,-0.1935,-0.1978,-0.1976,-0.1997,-0.1997,-0.1986,-0.1941,-0.1967,-0.1901,-0.1896,-0.1786,-0.1773,-0.1956,-0.1957,-0.1949,-0.1949,-0.195,-0.195,0,-0.2023,-0.2006,-0.1916,-0.1894,-0.1891,-0.1845,-0.1854,-0.1844,-0.1889,-0.1887,-0.1891,-0.1948,-0.1943,-0.1961,-0.1946,-0.1924,-0.1893,-0.1867,-0.1738,-0.1717,-0.1842,-0.1845,-0.1784,-0.1782,-0.178,-0.1779,-0.1777,0,-0.1928,-0.1874,-0.1836,-0.1804,-0.1784,-0.175,-0.174,-0.1787,-0.179,-0.1856,-0.1847,-0.1878,-0.1865,-0.1847,-0.1812,-0.1773,-0.1833,-0.1628,-0.1605,-0.1819,-0.1821,-0.1827,-0.1833,-0.1443,-0.144,-0.1436,-0.1434,0,-0.1765,-0.1768,-0.1711,-0.1665,-0.1636,-0.1616,-0.1609,-0.1618,-0.1684,-0.1706,-0.1728,-0.1735,-0.1735,-0.1644,-0.1619,-0.1578,-0.1626,-0.156,-0.1802,-0.1512,-0.1496,-0.15,-0.1516,-0.1405,-0.1408,-0.141,-0.1412,-0.1413,-0.1641,-0.1575,-0.153,-0.1479,-0.1471,-0.1462,-0.1419,-0.1459,-0.1462,-0.1483,-0.156,-0.1539,-0.1555,-0.1444,-0.1375,-0.1329,-0.1441,-0.1381,-0.1391,-0.1404,-0.1375,-0.1357,-0.1234,-0.1236,-0.1238,-0.1239,-0.124,0,-0.1442,-0.1404,-0.1355,-0.1292,-0.1262,-0.1311,-0.1315,-0.1283,-0.1259,-0.1314,-0.1319,-0.122,-0.1173,-0.1195,-0.108,-0.106,-0.1048,-0.1014,-0.1002,-0.1031,-0.1057,-0.101,-0.0772,-0.0771,-0.0769,-0.0768,0,0,-0.1322,-0.1206,-0.1198,-0.1091,-0.1085,-0.1019,-0.1007,-0.0999,-0.1016,-0.0994,-0.0999,-0.1106,-0.1161,-0.0969,-0.0923,-0.0828,-0.0916,-0.0783,-0.1159,-0.1173,-0.1197,-0.127,-0.123,0,0,0,0,0]},{"header":{"parameterUnit":"m.s-1","parameterCategory":2,"la1":30.2991,"la2":30.254,"lo1":-89.0895,"lo2":-89.0444,"dy":0.0017,"dx":0.0017,"nx":28,"ny":28,"refTime":"2023-05-26T21:00:00:Z","depth":"2","parameterNumber":3,"parameterNumberName":"V-component_of_CURRENTS"},"data":[0,0,0,0,0,0,0,0,0,0,0,0,0,0,0,0,0,0,0,0,0,0,0,0,0,0,0,0,0,0,0,0,0,0,0,0,0,0,0,0,0,0,0,0,0,0,0,0,0,0,0,0,0,0,0,0,0,0,0.0136,0.0137,0,0.0181,0.0181,0.0181,0.0135,0.0134,0.0132,0.0131,0.0121,0.0122,0.0123,0,0,0,0,0,0,0,0,0,0,0,0,0,0.0051,0.0052,0.0136,0.0137,0.0138,0.0181,0.0181,0.0181,0.0135,0.0134,0.0132,0.013,0.012,0.0122,0.0123,0,0,0,0,0,0,0,0,0,0,0,0,0,0.0086,0.0052,0.0136,0.0124,0.0124,0.0181,0.0181,0.0181,0.0136,0.0134,0.0131,0.013,0.012,0.0121,0.0123,0.0173,0,0,0.0127,0.0128,0,0,0,0,0,0,0,0,0.0084,0.0089,0.0125,0.0125,0.0125,0.0155,0.0148,0.0177,0.0136,0.0126,0.0131,0.0129,0.0132,0.0132,0.0139,0.0172,0.0172,0.0128,0.0128,0.0129,0.013,0,0,0,0,0,0,0,0.0082,0.0087,0.0149,0.0126,0.0126,0.013,0.0132,0.0153,0.0135,0.0127,0.0125,0.0138,0.013,0.0138,0.0138,0.0171,0.0128,0.0129,0.013,0.013,0.0163,0.0163,0,0,0,0,0,0,0.0087,0.0085,0.0148,0.0151,0.0105,0.0134,0.0136,0.0143,0.0136,0.0135,0.014,0.0136,0.0136,0.0136,0.0138,0.0112,0.0129,0.013,0.0131,0.0163,0.0163,0.0163,0,0,0,0,0,0,0.0084,0.0092,0.0146,0.0123,0.013,0.0138,0.0146,0.0145,0.0124,0.0147,0.0143,0.0117,0.0134,0.0135,0.0102,0.0114,0.0131,0.0132,0.0163,0.0163,0.0163,0.0115,0,0,0,0,0,0,0.0082,0.009,0.0077,0.0123,0.0132,0.014,0.0149,0.0148,0.014,0.0134,0.0128,0.0126,0.0133,0.0099,0.0103,0.0117,0.0134,0.0163,0.0163,0.0163,0.0117,0.0114,0.0111,0,0,0,0,0,0.0078,0.008,0.0076,0.0083,0.012,0.0139,0.0142,0.0138,0.0141,0.0115,0.0101,0.0125,0.0104,0.0099,0.0104,0.0119,0.0163,0.0163,0.0163,0.0118,0.0114,0.0111,0,0,0,0,0,0,0.0043,0.0078,0.0073,0.0085,0.009,0.0132,0.0125,0.0129,0.0105,0.0093,0.0108,0.0104,0.0086,0.0107,0.0102,0.013,0.0146,0.0147,0.011,0.0107,0.0104,0.0106,0.0135,0,0,0,0,0,0.0031,0.0022,0.0062,0.0058,0.0071,0.0094,0.0098,0.0094,0.0096,0.0083,0.0068,0.0076,0.0101,0.0099,0.0105,0.0114,0.0143,0.0134,0.0131,0.0128,0.0134,0.0173,0.0173,0.0163,0.0163,0.0163,0,0,0.0005,0.0031,0.0018,0.0046,0.006,0.0049,0.0088,0.0088,0.0067,0.009,0.0032,0.0052,0.0097,0.0095,0.0094,0.0107,0.0145,0.0128,0.0125,0.0133,0.0173,0.0174,0.0175,0.0163,0.0163,0.0163,0,0,-0.004,-0.0012,-0.0039,-0.0032,-0.0014,0.0006,-0.0,0.0012,0.0007,-0.0025,-0.0002,0.0012,0.0016,0.0055,0.0086,0.0077,0.0121,0.009,0.0083,0.012,0.0121,0.0123,0.0151,0.0155,0.0096,0.0096,0.0096,0,-0.0079,-0.0089,-0.0048,-0.0062,-0.0054,-0.002,-0.0042,-0.0035,-0.0056,-0.0039,-0.0063,-0.0014,0.0008,0.007,0.0064,0.0073,0.0094,0.0091,0.0116,0.0118,0.012,0.0149,0.0155,0.0094,0.0094,0.0095,0.0095,0,-0.017,-0.0156,-0.0157,-0.0172,-0.0163,-0.0171,-0.0138,-0.0152,-0.0144,-0.0126,-0.0097,-0.007,-0.0028,-0.0006,0.0027,0.0078,0.0086,0.0099,0.0122,0.0118,0.0149,0.0155,0.0091,0.0092,0.0092,0.0093,0,0,-0.0317,-0.0238,-0.0257,-0.0223,-0.0213,-0.0199,-0.0213,-0.0183,-0.0168,-0.0179,-0.0152,-0.0095,-0.0059,-0.0021,0.0031,0.007,0.0102,0.009,0.0093,0.0113,0.0176,0.0205,0.0215,0.0115,0.0116,0.0117,0.0187,0,-0.0409,-0.0413,-0.0376,-0.0382,-0.0344,-0.0296,-0.0301,-0.027,-0.024,-0.0221,-0.0133,-0.0104,-0.0065,-0.0037,0.0009,0.0079,0.0119,0.0082,0.0182,0.0185,0.0207,0.0223,0.0203,0.0266,0.0194,0.0195,0.0196,0,-0.0513,-0.0489,-0.0492,-0.038,-0.0373,-0.0393,-0.0339,-0.0341,-0.0275,-0.0248,-0.0187,-0.0136,-0.0056,-0.004,0.008,0.0051,0.0111,0.016,0.0164,0.0215,0.0227,0.0262,0.0281,0.0207,0.0206,0.0206,0.0205,0,-0.0577,-0.0542,-0.0526,-0.0513,-0.0435,-0.0422,-0.0403,-0.0348,-0.0325,-0.0261,-0.0244,-0.0148,-0.0106,-0.0018,0.009,0.0083,0.0208,0.0211,0.0295,0.0297,0.0314,0.0316,0.0291,0.029,0.029,0.029,0.029,0,-0.0629,-0.0613,-0.0545,-0.0542,-0.052,-0.0455,-0.0441,-0.0401,-0.036,-0.0335,-0.0258,-0.0224,-0.0102,-0.0013,0.0082,0.0213,0.0206,0.0302,0.0323,0.0296,0.0295,0.0274,0.0271,0.0293,0.0292,0.0292,0.0291,0,-0.0649,-0.0622,-0.0574,-0.0532,-0.052,-0.0502,-0.0467,-0.0457,-0.0417,-0.0387,-0.037,-0.0278,-0.0162,-0.0031,0.0116,0.0202,0.0324,0.0372,0.0329,0.0344,0.0386,0.038,0.0469,0.047,0.0472,0.0473,0.0474,0,-0.0643,-0.0624,-0.0585,-0.0577,-0.0556,-0.0532,-0.0527,-0.0488,-0.048,-0.0416,-0.0407,-0.0296,-0.0206,0.0021,0.0188,0.0367,0.0366,0.045,0.0442,0.0397,0.0408,0.0399,0.0391,0.0439,0.044,0.0441,0.0441,0,-0.0631,-0.0626,-0.06,-0.0592,-0.0584,-0.0578,-0.0566,-0.057,-0.0532,-0.0507,-0.0448,-0.0371,-0.0152,0.0043,0.0275,0.0374,0.042,0.0467,0.0442,0.0398,0.0375,0.0384,0.0376,0.0446,0.0445,0.0445,0.0445,0.0445,-0.0623,-0.0603,-0.0586,-0.0576,-0.0588,-0.0613,-0.0613,-0.0612,-0.0601,-0.0552,-0.0477,-0.0352,-0.0155,0.017,0.0338,0.0488,0.0482,0.0523,0.0519,0.0514,0.0499,0.048,0.0567,0.0567,0.0567,0.0568,0.0568,0,-0.0579,-0.0573,-0.0574,-0.057,-0.0608,-0.0612,-0.0631,-0.0633,-0.0625,-0.0564,-0.0487,-0.0272,-0.0039,0.0161,0.0409,0.056,0.0538,0.0577,0.0523,0.0517,0.0513,0.0495,0.0564,0.0564,0.0564,0.0565,0,0,-0.0552,-0.0525,-0.0532,-0.058,-0.0606,-0.0641,-0.0654,-0.0653,-0.0613,-0.0558,-0.0465,-0.0303,-0.0045,0.0133,0.0324,0.0451,0.0439,0.0457,0.0445,0.0352,0.0346,0.0469,0.0434,0,0,0,0,0]}],[{"header":{"parameterUnit":"m.s-1","parameterCategory":2,"la1":30.2991,"la2":30.254,"lo1":-89.0895,"lo2":-89.0444,"dy":0.0017,"dx":0.0017,"nx":28,"ny":28,"refTime":"2023-05-26T21:00:00:Z","depth":"4","parameterNumber":2,"parameterNumberName":"U-component_of_CURRENTS"},"data":[0,0,0,0,0,0,0,0,0,0,0,0,0,0,0,0,0,0,0,0,0,0,0,0,0,0,0,0,0,0,0,0,0,0,0,0,0,0,0,0,0,0,0,0,0,0,0,0,0,0,0,0,0,0,0,0,0,0,-0.0928,-0.0929,0,-0.0992,-0.0993,-0.0994,-0.1039,-0.104,-0.104,-0.104,-0.1184,-0.1187,-0.1191,0,0,0,0,0,0,0,0,0,0,0,0,0,-0.0858,-0.0859,-0.0928,-0.0929,-0.093,-0.0992,-0.0993,-0.0994,-0.1039,-0.104,-0.104,-0.104,-0.1183,-0.1187,-0.1191,0,0,0,0,0,0,0,0,0,0,0,0,0,-0.0903,-0.086,-0.0928,-0.0959,-0.0963,-0.0992,-0.0993,-0.0994,-0.1039,-0.104,-0.104,-0.1041,-0.1181,-0.1186,-0.1192,-0.1216,0,0,-0.1208,-0.121,0,0,0,0,0,0,0,0,-0.09,-0.0905,-0.0954,-0.0957,-0.0961,-0.1008,-0.1021,-0.1072,-0.1039,-0.1011,-0.104,-0.1041,-0.1131,-0.1141,-0.1152,-0.1222,-0.1229,-0.1208,-0.1212,-0.1214,-0.1215,0,0,0,0,0,0,0,-0.0897,-0.0903,-0.0954,-0.0955,-0.0959,-0.0974,-0.0981,-0.1031,-0.107,-0.1014,-0.1017,-0.1022,-0.1134,-0.1147,-0.1156,-0.1231,-0.1208,-0.1213,-0.1216,-0.1218,-0.1434,-0.1436,0,0,0,0,0,0,-0.0886,-0.09,-0.0952,-0.0956,-0.093,-0.0975,-0.0983,-0.0993,-0.1068,-0.1079,-0.1022,-0.1024,-0.1137,-0.115,-0.1161,-0.1285,-0.1214,-0.1219,-0.1222,-0.1431,-0.1434,-0.1437,0,0,0,0,0,0,-0.0885,-0.0891,-0.095,-0.0929,-0.0937,-0.0976,-0.0987,-0.0994,-0.1025,-0.1073,-0.1086,-0.1048,-0.1138,-0.1154,-0.1235,-0.1287,-0.1221,-0.1226,-0.1428,-0.1432,-0.1436,-0.1474,0,0,0,0,0,0,-0.0882,-0.089,-0.0902,-0.0928,-0.0938,-0.0987,-0.0986,-0.0995,-0.1026,-0.1031,-0.11,-0.1112,-0.114,-0.1227,-0.124,-0.1293,-0.123,-0.1425,-0.143,-0.1435,-0.147,-0.1479,-0.1487,0,0,0,0,0,-0.088,-0.0897,-0.0902,-0.0909,-0.095,-0.0988,-0.0996,-0.1024,-0.1027,-0.1052,-0.1102,-0.1111,-0.1267,-0.1233,-0.1248,-0.1304,-0.1423,-0.1429,-0.1434,-0.1466,-0.1477,-0.1487,0,0,0,0,0,0,-0.0872,-0.0904,-0.091,-0.0935,-0.0966,-0.0996,-0.1019,-0.1033,-0.1089,-0.1101,-0.1139,-0.1157,-0.1251,-0.1271,-0.1233,-0.1382,-0.1348,-0.1357,-0.1368,-0.1379,-0.1387,-0.1368,-0.1235,0,0,0,0,0,-0.0873,-0.0898,-0.0926,-0.0949,-0.0963,-0.0992,-0.1012,-0.1035,-0.1079,-0.1103,-0.1157,-0.1218,-0.1283,-0.1323,-0.1383,-0.1458,-0.1439,-0.1507,-0.1516,-0.1523,-0.1519,-0.1517,-0.1524,-0.1456,-0.1456,-0.1456,0,0,-0.0874,-0.0896,-0.0909,-0.0949,-0.0973,-0.1025,-0.1007,-0.1048,-0.1107,-0.1113,-0.1217,-0.1252,-0.131,-0.1402,-0.1446,-0.1427,-0.1536,-0.153,-0.1535,-0.1528,-0.1524,-0.153,-0.1535,-0.146,-0.1459,-0.1459,0,0,-0.0899,-0.091,-0.0945,-0.0979,-0.1024,-0.1051,-0.1067,-0.1117,-0.1154,-0.1243,-0.1268,-0.1324,-0.1435,-0.1476,-0.1511,-0.16,-0.1581,-0.1634,-0.1664,-0.1662,-0.1667,-0.167,-0.166,-0.1662,-0.1638,-0.1638,-0.1638,0,-0.0898,-0.0949,-0.0961,-0.1013,-0.105,-0.1069,-0.1127,-0.1173,-0.1252,-0.128,-0.1292,-0.1422,-0.147,-0.1555,-0.1594,-0.1619,-0.1607,-0.1616,-0.1669,-0.1672,-0.1675,-0.1663,-0.1665,-0.1641,-0.164,-0.164,-0.164,0,-0.0951,-0.1005,-0.1029,-0.1106,-0.115,-0.1198,-0.1259,-0.1313,-0.1356,-0.139,-0.1479,-0.1528,-0.1591,-0.1629,-0.1646,-0.1704,-0.1686,-0.1674,-0.1631,-0.1683,-0.1669,-0.167,-0.1644,-0.1643,-0.1643,-0.1642,0,0,-0.0927,-0.1041,-0.1057,-0.111,-0.1202,-0.1241,-0.134,-0.1414,-0.1456,-0.1532,-0.1581,-0.1687,-0.1672,-0.171,-0.1727,-0.1737,-0.1755,-0.172,-0.1718,-0.1687,-0.1744,-0.1632,-0.1622,-0.1746,-0.1747,-0.1747,-0.1726,0,-0.0968,-0.1077,-0.1129,-0.1247,-0.1309,-0.1361,-0.1441,-0.1511,-0.1562,-0.1617,-0.1648,-0.1706,-0.1717,-0.1733,-0.1749,-0.1755,-0.176,-0.1761,-0.1717,-0.1716,-0.1591,-0.162,-0.1749,-0.1727,-0.1727,-0.1727,-0.1727,0,-0.1018,-0.1085,-0.1197,-0.1315,-0.1342,-0.1413,-0.1511,-0.1582,-0.1649,-0.1677,-0.1716,-0.1731,-0.1775,-0.176,-0.1783,-0.1782,-0.1769,-0.1763,-0.1761,-0.1639,-0.1605,-0.1666,-0.1728,-0.1728,-0.1728,-0.1728,-0.1728,0,-0.1008,-0.1142,-0.1229,-0.1271,-0.1398,-0.1451,-0.1514,-0.1596,-0.1635,-0.1697,-0.1711,-0.1758,-0.1773,-0.1775,-0.1777,-0.1778,-0.1774,-0.1768,-0.1654,-0.1646,-0.1734,-0.173,-0.1766,-0.1766,-0.1766,-0.1766,-0.1766,0,-0.1037,-0.1116,-0.1228,-0.1276,-0.1357,-0.145,-0.1518,-0.1579,-0.1639,-0.166,-0.1723,-0.173,-0.1775,-0.1781,-0.1776,-0.1713,-0.1771,-0.1654,-0.1631,-0.1754,-0.1753,-0.1734,-0.1731,-0.1765,-0.1766,-0.1766,-0.1766,0,-0.1026,-0.1107,-0.1205,-0.1326,-0.136,-0.1416,-0.1506,-0.1533,-0.1607,-0.1633,-0.1647,-0.1711,-0.1708,-0.1737,-0.1735,-0.1692,-0.1655,-0.1618,-0.1747,-0.1733,-0.1529,-0.1529,-0.1479,-0.1475,-0.1471,-0.1468,-0.1466,0,-0.1031,-0.108,-0.1206,-0.1237,-0.1293,-0.1372,-0.1404,-0.1499,-0.1516,-0.1599,-0.1591,-0.1628,-0.1652,-0.156,-0.1607,-0.1575,-0.1561,-0.1536,-0.1535,-0.1516,-0.1499,-0.1504,-0.1508,-0.146,-0.1459,-0.1458,-0.1457,0,-0.1013,-0.1058,-0.1118,-0.1172,-0.1223,-0.127,-0.1329,-0.1334,-0.1419,-0.1502,-0.1482,-0.1479,-0.1472,-0.1471,-0.1457,-0.1439,-0.155,-0.1498,-0.1506,-0.1504,-0.1492,-0.148,-0.1489,-0.1445,-0.1447,-0.1448,-0.1449,0,-0.0973,-0.0989,-0.1042,-0.108,-0.1135,-0.1144,-0.12,-0.1213,-0.1245,-0.1346,-0.1332,-0.138,-0.1444,-0.1398,-0.1387,-0.1358,-0.1338,-0.1301,-0.1318,-0.1332,-0.1296,-0.126,-0.1113,0,0,0,0,0,-0.0916,-0.0906,-0.0935,-0.097,-0.1018,-0.1045,-0.1124,-0.1177,-0.127,-0.1213,-0.1269,-0.1254,-0.1236,-0.1269,-0.1206,-0.1324,-0.1348,-0.1247,-0.1316,-0.1377,-0.1391,-0.1363,0,0,0,0,0,0,-0.0876,-0.0893,-0.0894,-0.0856,-0.0855,-0.0891,-0.094,-0.1015,-0.0995,-0.1097,-0.109,-0.1167,-0.1167,-0.1237,-0.1172,-0.1182,-0.1198,-0.1286,-0.1283,-0.1369,-0.1382,-0.1393,-0.1369,0,0,0,0,0]},{"header":{"parameterUnit":"m.s-1","parameterCategory":2,"la1":30.2991,"la2":30.254,"lo1":-89.0895,"lo2":-89.0444,"dy":0.0017,"dx":0.0017,"nx":28,"ny":28,"refTime":"2023-05-26T21:00:00:Z","depth":"4","parameterNumber":3,"parameterNumberName":"V-component_of_CURRENTS"},"data":[0,0,0,0,0,0,0,0,0,0,0,0,0,0,0,0,0,0,0,0,0,0,0,0,0,0,0,0,0,0,0,0,0,0,0,0,0,0,0,0,0,0,0,0,0,0,0,0,0,0,0,0,0,0,0,0,0,0,-0.0011,-0.0011,0,0.0004,0.0004,0.0004,0.0017,0.0017,0.0016,0.0016,0.0066,0.0068,0.0069,0,0,0,0,0,0,0,0,0,0,0,0,0,0.0029,0.0028,-0.0011,-0.0011,-0.0011,0.0003,0.0004,0.0004,0.0017,0.0017,0.0016,0.0016,0.0066,0.0068,0.0069,0,0,0,0,0,0,0,0,0,0,0,0,0,0.0028,0.0028,-0.0011,-0.0006,-0.0006,0.0003,0.0004,0.0005,0.0017,0.0017,0.0016,0.0016,0.0065,0.0068,0.007,0.0089,0,0,0.0077,0.0078,0,0,0,0,0,0,0,0,0.0028,0.0027,-0.0007,-0.0006,-0.0006,0.0005,0.0036,0.0033,0.0017,0.0012,0.0016,0.0016,0.0047,0.0051,0.0059,0.0091,0.0093,0.0077,0.0078,0.0079,0.008,0,0,0,0,0,0,0,0.0028,0.0026,-0.0002,-0.0007,-0.0006,0.0015,0.0014,0.0036,0.0034,0.0012,0.0012,0.0009,0.0048,0.0056,0.006,0.0094,0.0077,0.0079,0.008,0.0081,0.0139,0.0139,0,0,0,0,0,0,0.0016,0.0026,-0.0002,-0.0002,0.0007,0.0014,0.0014,0.0005,0.0033,0.0036,0.0009,0.0009,0.0053,0.0057,0.0062,0.0073,0.0079,0.0081,0.0083,0.0139,0.0139,0.0139,0,0,0,0,0,0,0.0017,0.0013,-0.0003,0.001,0.0009,0.0013,0.0003,0.0005,0.0013,0.0029,0.0034,0.0014,0.0053,0.0059,0.0073,0.0076,0.0082,0.0084,0.0139,0.0139,0.0139,0.0105,0,0,0,0,0,0,0.0018,0.0013,0.0012,0.0009,0.0008,0.0001,0.0003,0.0005,0.0009,0.001,0.0036,0.004,0.0053,0.0069,0.0075,0.0079,0.0086,0.0138,0.0139,0.0139,0.0106,0.0104,0.0102,0,0,0,0,0,0.0019,0.0015,0.0012,0.0009,0.0003,0.0001,0.0003,0.0008,0.001,0.0014,0.0025,0.0039,0.0076,0.0071,0.0078,0.0082,0.0138,0.0139,0.0139,0.0106,0.0104,0.0102,0,0,0,0,0,0,0.0034,0.0015,0.0012,0.0003,0.0001,0.0002,0.0006,0.0008,0.0021,0.0023,0.004,0.0045,0.0057,0.0077,0.0071,0.0101,0.0111,0.0113,0.0084,0.0082,0.008,0.0074,0.0088,0,0,0,0,0,0.0034,0.0024,0.0014,0.0007,0.0005,0.0007,0.0009,0.001,0.0015,0.0021,0.0036,0.0054,0.0065,0.0078,0.0093,0.0113,0.0137,0.0122,0.012,0.0119,0.0119,0.0154,0.0156,0.0141,0.0141,0.0141,0,0,0.0035,0.0026,0.0019,0.001,0.0009,-0.0005,0.0008,0.0008,-0.0002,0.0025,0.0026,0.0047,0.0067,0.0081,0.009,0.0099,0.0135,0.0119,0.0117,0.0119,0.0155,0.0157,0.0158,0.0141,0.0141,0.0141,0,0,0.0026,0.0024,0.001,0.0005,-0.0002,-0.0004,-0.0007,-0.0005,0.0001,0.0,0.0017,0.004,0.0056,0.0078,0.0088,0.009,0.012,0.0097,0.009,0.0125,0.0126,0.0128,0.0157,0.0162,0.0103,0.0103,0.0103,0,0.003,0.0003,0.0009,-0.0008,-0.002,-0.001,-0.003,-0.0024,-0.0016,-0.0007,-0.0007,0.0031,0.0053,0.0075,0.0074,0.0087,0.0108,0.0093,0.0122,0.0124,0.0126,0.0156,0.0161,0.0101,0.0101,0.0101,0.0102,0,0.0002,-0.0016,-0.0024,-0.005,-0.0055,-0.0069,-0.0071,-0.0064,-0.006,-0.005,-0.0026,0.0006,0.0032,0.0045,0.0056,0.0089,0.0099,0.0109,0.0124,0.0125,0.0157,0.0163,0.0099,0.0099,0.01,0.01,0,0,-0.0003,-0.0039,-0.0043,-0.0066,-0.0081,-0.0091,-0.0101,-0.0102,-0.0103,-0.0079,-0.007,-0.0037,-0.0002,0.0013,0.0047,0.0082,0.0116,0.0101,0.0103,0.0125,0.0189,0.0177,0.0182,0.013,0.0131,0.0132,0.0204,0,-0.003,-0.0078,-0.0083,-0.0127,-0.0157,-0.0149,-0.016,-0.0152,-0.0138,-0.012,-0.0069,-0.0049,-0.002,-0.0001,0.0038,0.0094,0.0131,0.0095,0.019,0.0192,0.0177,0.0189,0.0135,0.0209,0.021,0.0211,0.0212,0,-0.0067,-0.0093,-0.0145,-0.0179,-0.0188,-0.0209,-0.0218,-0.0221,-0.0186,-0.0169,-0.0126,-0.0084,-0.0025,-0.0005,0.0096,0.007,0.0127,0.0171,0.0175,0.018,0.0191,0.021,0.0224,0.0223,0.0222,0.0221,0.022,0,-0.0098,-0.0141,-0.0186,-0.0201,-0.023,-0.0245,-0.0254,-0.0236,-0.0231,-0.0191,-0.0176,-0.0103,-0.0067,0.0013,0.0107,0.0103,0.0216,0.0222,0.0267,0.0266,0.0271,0.0268,0.0295,0.0295,0.0294,0.0294,0.0294,0,-0.0139,-0.0175,-0.0207,-0.0234,-0.0273,-0.0279,-0.03,-0.0293,-0.0271,-0.0259,-0.0198,-0.017,-0.0061,0.0018,0.0102,0.0202,0.0215,0.0268,0.0286,0.0254,0.0249,0.0275,0.0272,0.0297,0.0296,0.0296,0.0295,0,-0.0175,-0.0198,-0.0252,-0.0287,-0.0296,-0.0325,-0.0341,-0.0346,-0.0323,-0.0305,-0.0292,-0.0214,-0.0116,-0.0002,0.013,0.0189,0.029,0.0324,0.0281,0.0295,0.0319,0.0313,0.0377,0.0377,0.0377,0.0377,0.0378,0,-0.0198,-0.0233,-0.0289,-0.0314,-0.0333,-0.0366,-0.0382,-0.0376,-0.0375,-0.0329,-0.0319,-0.0228,-0.0164,0.0014,0.0126,0.0286,0.0307,0.0355,0.0339,0.0317,0.0329,0.0323,0.0317,0.0378,0.0378,0.0378,0.0378,0,-0.0237,-0.0263,-0.0299,-0.0347,-0.0381,-0.0412,-0.0434,-0.0435,-0.0414,-0.0395,-0.0332,-0.0235,-0.0127,0.0007,0.0132,0.0246,0.032,0.0357,0.0357,0.0343,0.0319,0.0329,0.0323,0.0378,0.0378,0.0378,0.0378,0,-0.0259,-0.029,-0.0334,-0.0373,-0.0416,-0.0444,-0.0455,-0.0445,-0.0437,-0.0382,-0.0364,-0.0241,-0.0171,-0.0013,0.0103,0.0211,0.0235,0.0264,0.027,0.027,0.0214,0.0167,0.0198,0,0,0,0,0,-0.0277,-0.0306,-0.0348,-0.0397,-0.044,-0.0459,-0.0477,-0.0477,-0.0457,-0.0416,-0.0386,-0.0282,-0.0112,-0.0041,0.0067,0.01,0.0249,0.0228,0.0283,0.0382,0.0381,0.0331,0,0,0,0,0,0,-0.029,-0.0333,-0.035,-0.0406,-0.0436,-0.0479,-0.049,-0.0479,-0.0449,-0.0415,-0.0324,-0.0269,-0.0103,-0.0174,0.0064,0.0096,0.0143,0.031,0.0312,0.0382,0.0381,0.0381,0.033,0,0,0,0,0]}]]